When you browse on this site, cookies collect data to enhance your experience and personalize the content and advertising you see.
Visit our Privacy Policy to learn more. By continuing to use the site, you agree to this use of cookies and data.
  • In Schweiz
  • Länderverzeichnis
  • Für 7 Tage
  • Wassertemperatur
  • Satellitenkarten
  • Wetterkarte
  • Widgets
  • user-avatar
    Anmelden

    Stündliche Wetter Búðardalur

    Heute, 14 Dezember, Freitag

    Zeit Temperatur Niederschläge Wind Luftdruck Luftfeuchtigkeit
    00:00 +3°C° 0.3 mm 4 m/S 739 mmHg 93%
    01:00 +3°C° 0.3 mm 4 m/S 739 mmHg 94%
    02:00 +3°C° 0.3 mm 4 m/S 740 mmHg 96%
    03:00 +2°C° 0.1 mm 5 m/S 741 mmHg 95%
    04:00 +2°C° 0.1 mm 6 m/S 742 mmHg 95%
    05:00 +2°C° 0.1 mm 7 m/S 743 mmHg 95%
    06:00 +1°C° 0 mm 6 m/S 743 mmHg 93%
    07:00 +1°C° 0 mm 5 m/S 744 mmHg 91%
    08:00 0°C° 0 mm 5 m/S 745 mmHg 90%
    09:00 0°C° 0 mm 4 m/S 745 mmHg 89%
    10:00 0°C° 0 mm 3 m/S 745 mmHg 88%
    11:00 0°C° 0 mm 3 m/S 745 mmHg 87%
    12:00 0°C° 0 mm 3 m/S 745 mmHg 86%
    13:00 -1°C° 0 mm 4 m/S 744 mmHg 85%
    14:00 -1°C° 0 mm 4 m/S 743 mmHg 84%
    15:00 -1°C° 0 mm 5 m/S 742 mmHg 83%
    16:00 -1°C° 0 mm 6 m/S 742 mmHg 82%
    17:00 -1°C° 0 mm 7 m/S 741 mmHg 81%
    18:00 0°C° 0.2 mm 7 m/S 740 mmHg 81%
    19:00 0°C° 0.2 mm 7 m/S 739 mmHg 81%
    20:00 +2°C° 0.2 mm 7 m/S 738 mmHg 81%
    21:00 0°C° 0.2 mm 7 m/S 737 mmHg 83%
    22:00 +1°C° 0.2 mm 6 m/S 737 mmHg 84%
    23:00 +1°C° 0.2 mm 5 m/S 736 mmHg 85%

    Morgen, 15 Dezember, Samstag

    Zeit Temperatur Niederschläge Wind Luftdruck Luftfeuchtigkeit
    00:00 +1°C° 0.1 mm 5 m/S 736 mmHg 85%
    01:00 +1°C° 0.1 mm 4 m/S 736 mmHg 85%
    02:00 +1°C° 0.1 mm 4 m/S 735 mmHg 85%
    03:00 +1°C° 0 mm 5 m/S 735 mmHg 84%
    04:00 +2°C° 0 mm 5 m/S 735 mmHg 84%
    05:00 +2°C° 0 mm 6 m/S 736 mmHg 83%
    06:00 +2°C° 0 mm 6 m/S 736 mmHg 82%
    07:00 +2°C° 0 mm 6 m/S 737 mmHg 81%
    08:00 +1°C° 0 mm 6 m/S 737 mmHg 81%
    09:00 +1°C° 0 mm 6 m/S 738 mmHg 80%
    10:00 +1°C° 0 mm 6 m/S 738 mmHg 80%
    11:00 +1°C° 0 mm 5 m/S 739 mmHg 79%
    12:00 0°C° 0 mm 5 m/S 739 mmHg 79%
    13:00 0°C° 0 mm 5 m/S 740 mmHg 80%
    14:00 0°C° 0 mm 4 m/S 740 mmHg 80%
    15:00 0°C° 0 mm 4 m/S 740 mmHg 80%
    16:00 0°C° 0 mm 4 m/S 741 mmHg 80%
    17:00 -1°C° 0 mm 4 m/S 741 mmHg 80%
    18:00 -1°C° 0 mm 4 m/S 741 mmHg 80%
    19:00 -1°C° 0 mm 4 m/S 742 mmHg 80%
    20:00 -2°C° 0 mm 4 m/S 742 mmHg 80%
    21:00 -2°C° 0 mm 4 m/S 742 mmHg 79%
    22:00 -2°C° 0 mm 4 m/S 742 mmHg 78%
    23:00 -2°C° 0 mm 4 m/S 742 mmHg 76%

    übermorgen, 16 Dezember, Sonntag

    Zeit Temperatur Niederschläge Wind Luftdruck Luftfeuchtigkeit
    00:00 -2°C° 0 mm 5 m/S 741 mmHg 78%
    01:00 -1°C° 0 mm 5 m/S 741 mmHg 80%
    02:00 -2°C° 0 mm 6 m/S 740 mmHg 82%
    03:00 -2°C° 0.1 mm 6 m/S 739 mmHg 85%
    04:00 -1°C° 0.1 mm 7 m/S 738 mmHg 88%
    05:00 -1°C° 0.1 mm 8 m/S 737 mmHg 91%
    06:00 -1°C° 0.2 mm 8 m/S 736 mmHg 92%
    07:00 -1°C° 0.2 mm 9 m/S 736 mmHg 93%
    08:00 0°C° 0.2 mm 9 m/S 735 mmHg 94%
    09:00 0°C° 0.2 mm 8 m/S 734 mmHg 93%
    10:00 0°C° 0.2 mm 8 m/S 733 mmHg 93%
    11:00 0°C° 0.2 mm 7 m/S 733 mmHg 93%
    12:00 0°C° 0.3 mm 7 m/S 732 mmHg 92%
    13:00 +1°C° 0.3 mm 6 m/S 732 mmHg 91%
    14:00 +1°C° 0.3 mm 6 m/S 732 mmHg 89%
    15:00 +1°C° 0.1 mm 6 m/S 732 mmHg 89%
    16:00 +1°C° 0.1 mm 5 m/S 732 mmHg 88%
    17:00 +1°C° 0.1 mm 4 m/S 733 mmHg 88%
    18:00 +1°C° 0 mm 4 m/S 733 mmHg 88%
    19:00 +2°C° 0 mm 3 m/S 734 mmHg 87%
    20:00 +2°C° 0 mm 3 m/S 735 mmHg 87%
    21:00 +1°C° 0 mm 3 m/S 735 mmHg 86%
    22:00 +1°C° 0 mm 3 m/S 736 mmHg 85%
    23:00 0°C° 0 mm 3 m/S 736 mmHg 84%

    17 Dezember, Montag

    Zeit Temperatur Niederschläge Wind Luftdruck Luftfeuchtigkeit
    00:00 0°C° 0 mm 4 m/S 736 mmHg 83%
    01:00 0°C° 0 mm 4 m/S 736 mmHg 83%
    02:00 0°C° 0 mm 5 m/S 737 mmHg 82%
    03:00 0°C° 0.1 mm 5 m/S 737 mmHg 82%
    04:00 +1°C° 0.1 mm 5 m/S 737 mmHg 83%
    05:00 +1°C° 0.1 mm 5 m/S 737 mmHg 83%
    06:00 +1°C° 0 mm 5 m/S 738 mmHg 82%
    07:00 0°C° 0 mm 5 m/S 739 mmHg 81%
    08:00 0°C° 0 mm 5 m/S 739 mmHg 80%
    09:00 0°C° 0 mm 5 m/S 740 mmHg 81%
    10:00 0°C° 0 mm 4 m/S 740 mmHg 81%
    11:00 0°C° 0 mm 4 m/S 741 mmHg 81%
    12:00 0°C° 0 mm 4 m/S 741 mmHg 81%
    13:00 0°C° 0 mm 4 m/S 741 mmHg 81%
    14:00 -1°C° 0 mm 5 m/S 741 mmHg 81%
    15:00 -1°C° 0 mm 5 m/S 741 mmHg 80%
    16:00 -1°C° 0 mm 5 m/S 742 mmHg 80%
    17:00 -1°C° 0 mm 5 m/S 742 mmHg 79%
    18:00 -1°C° 0 mm 5 m/S 741 mmHg 78%
    19:00 -2°C° 0 mm 6 m/S 741 mmHg 77%
    20:00 -1°C° 0 mm 6 m/S 741 mmHg 77%
    21:00 -1°C° 0 mm 7 m/S 740 mmHg 77%
    22:00 0°C° 0 mm 8 m/S 740 mmHg 77%
    23:00 0°C° 0 mm 9 m/S 739 mmHg 77%

    18 Dezember, Dienstag

    Zeit Temperatur Niederschläge Wind Luftdruck Luftfeuchtigkeit
    00:00 +1°C° 0.1 mm 9 m/S 739 mmHg 78%
    01:00 +1°C° 0.1 mm 10 m/S 738 mmHg 79%
    02:00 +1°C° 0.1 mm 11 m/S 738 mmHg 80%
    03:00 +1°C° 0.1 mm 11 m/S 737 mmHg 80%
    04:00 +1°C° 0.1 mm 11 m/S 737 mmHg 81%
    05:00 0°C° 0.1 mm 12 m/S 736 mmHg 81%
    06:00 0°C° 0.1 mm 12 m/S 736 mmHg 82%
    07:00 0°C° 0.1 mm 13 m/S 736 mmHg 83%
    08:00 0°C° 0.1 mm 13 m/S 735 mmHg 85%
    09:00 0°C° 0.1 mm 12 m/S 735 mmHg 85%
    10:00 +1°C° 0.1 mm 11 m/S 734 mmHg 86%
    11:00 +1°C° 0.1 mm 10 m/S 734 mmHg 87%
    12:00 +1°C° 0 mm 10 m/S 734 mmHg 86%
    13:00 +1°C° 0 mm 9 m/S 734 mmHg 86%
    14:00 +1°C° 0 mm 8 m/S 734 mmHg 86%
    15:00 0°C° 0 mm 8 m/S 734 mmHg 87%
    16:00 0°C° 0 mm 7 m/S 735 mmHg 89%
    17:00 0°C° 0 mm 7 m/S 735 mmHg 90%
    18:00 +1°C° 0 mm 6 m/S 736 mmHg 91%
    19:00 +1°C° 0 mm 6 m/S 736 mmHg 92%
    20:00 +1°C° 0 mm 5 m/S 737 mmHg 92%
    21:00 +1°C° 0.1 mm 5 m/S 737 mmHg 93%
    22:00 +1°C° 0.1 mm 5 m/S 737 mmHg 94%
    23:00 +1°C° 0.1 mm 5 m/S 737 mmHg 95%

    19 Dezember, Mittwoch

    Zeit Temperatur Niederschläge Wind Luftdruck Luftfeuchtigkeit
    00:00 +1°C° 0 mm 5 m/S 736 mmHg 95%
    01:00 +1°C° 0 mm 6 m/S 736 mmHg 95%
    02:00 +1°C° 0 mm 6 m/S 736 mmHg 95%
    03:00 +1°C° 0.3 mm 5 m/S 735 mmHg 95%
    04:00 +1°C° 0.3 mm 4 m/S 735 mmHg 94%
    05:00 +2°C° 0.3 mm 3 m/S 734 mmHg 94%
    06:00 +2°C° 1.1 mm 3 m/S 734 mmHg 94%
    07:00 +2°C° 1.1 mm 3 m/S 734 mmHg 95%
    08:00 +2°C° 1.1 mm 3 m/S 733 mmHg 95%
    09:00 +2°C° 1 mm 3 m/S 733 mmHg 95%
    10:00 +2°C° 1 mm 3 m/S 733 mmHg 95%
    11:00 +1°C° 1 mm 4 m/S 734 mmHg 95%
    12:00 +2°C° 0.5 mm 3 m/S 734 mmHg 93%
    13:00 +2°C° 0.5 mm 3 m/S 735 mmHg 92%
    14:00 +2°C° 0.5 mm 3 m/S 736 mmHg 90%
    15:00 +1°C° 0.4 mm 4 m/S 737 mmHg 89%
    16:00 +1°C° 0.4 mm 4 m/S 738 mmHg 87%
    17:00 +1°C° 0.4 mm 4 m/S 739 mmHg 85%
    18:00 0°C° 0.1 mm 4 m/S 740 mmHg 84%
    19:00 0°C° 0.1 mm 4 m/S 741 mmHg 82%
    20:00 0°C° 0.1 mm 4 m/S 742 mmHg 80%
    21:00 -1°C° 0 mm 4 m/S 743 mmHg 80%
    22:00 -1°C° 0 mm 4 m/S 744 mmHg 79%
    23:00 0°C° 0 mm 3 m/S 745 mmHg 79%
    Mehr zeigen